📊 Raw Sensor Data
Showing records 48226 to 48250 of 85,097 total
| ID | Distance (ft) | Battery V | Battery A | Int Temp (°F) | Int Humid (%) | Ext Temp (°F) | Solar V | RSSI | SNR | Time Stamp |
|---|---|---|---|---|---|---|---|---|---|---|
| 36884 | -- | 3.89 | 0 | 80 | 40 | 72 | 5.10 | -77 | 9 | 04/04/2025 05:30 PM |
| 36883 | -- | 3.89 | 0 | 80 | 40 | 72 | 5.10 | -75 | 8 | 04/04/2025 05:15 PM |
| 36882 | -- | 3.89 | 0 | 80 | 40 | 72 | 5.10 | -78 | 9 | 04/04/2025 05:00 PM |
| 36881 | -- | 3.89 | 0 | 80 | 40 | 72 | 5.10 | -75 | 8 | 04/04/2025 04:45 PM |
| 36880 | -- | 3.89 | 0 | 81 | 40 | 72 | 5.10 | -79 | 8 | 04/04/2025 04:30 PM |
| 36879 | -- | 3.89 | 0 | 81 | 39 | 72 | 5.10 | -78 | 9 | 04/04/2025 04:15 PM |
| 36878 | -- | 3.89 | 0 | 81 | 39 | 73 | 5.10 | -76 | 9 | 04/04/2025 04:00 PM |
| 36877 | -- | 3.89 | 0 | 81 | 38 | 72 | 5.10 | -76 | 9 | 04/04/2025 03:45 PM |
| 36876 | -- | 3.89 | 0 | 81 | 38 | 72 | 5.10 | -77 | 9 | 04/04/2025 03:30 PM |
| 36875 | -- | 3.89 | 0 | 80 | 38 | 71 | 5.10 | -75 | 9 | 04/04/2025 03:15 PM |
| 36874 | -- | 3.91 | 0 | 80 | 38 | 71 | 5.10 | -78 | 9 | 04/04/2025 03:00 PM |
| 36873 | -- | 3.89 | 0 | 80 | 38 | 71 | 5.10 | -76 | 9 | 04/04/2025 02:45 PM |
| 36872 | -- | 3.89 | 0 | 79 | 38 | 71 | 5.10 | -78 | 7 | 04/04/2025 02:30 PM |
| 36871 | -- | 3.89 | 0 | 78 | 38 | 70 | 5.10 | -81 | 7 | 04/04/2025 02:15 PM |
| 36870 | -- | 3.89 | 0 | 76 | 38 | 70 | 5.10 | -78 | 8 | 04/04/2025 01:45 PM |
| 36869 | -- | 4.02 | 0 | 75 | 38 | 69 | 5.10 | -78 | 9 | 04/04/2025 01:30 PM |
| 36868 | -- | 4.04 | 0 | 74 | 38 | 69 | 5.10 | -80 | 9 | 04/04/2025 01:15 PM |
| 36867 | -- | 3.92 | 0 | 73 | 38 | 68 | 5.10 | -77 | 9 | 04/04/2025 01:00 PM |
| 36866 | -- | 4.05 | 0 | 73 | 38 | 67 | 5.10 | -78 | 8 | 04/04/2025 12:45 PM |
| 36865 | -- | 3.88 | 0 | 71 | 38 | 67 | 5.10 | -79 | 8 | 04/04/2025 12:30 PM |
| 36864 | -- | 3.88 | 0 | 70 | 38 | 66 | 5.10 | -80 | 7 | 04/04/2025 12:15 PM |
| 36863 | -- | 3.88 | 0 | 69 | 38 | 66 | 5.10 | -77 | 8 | 04/04/2025 12:00 PM |
| 36862 | -- | 3.89 | 0 | 68 | 38 | 65 | 5.10 | -77 | 9 | 04/04/2025 11:45 AM |
| 36861 | -- | 3.88 | 0 | 67 | 38 | 64 | 5.10 | -79 | 8 | 04/04/2025 11:30 AM |
| 36860 | -- | 4.01 | 0 | 66 | 38 | 64 | 5.10 | -81 | 8 | 04/04/2025 11:15 AM |